Location: Twentynine Palms Airport
(34.1316°N, 115.9458°W)
Time: 11:05:14
(UTC-07:00)

Oscar 19 - Visible Passes

Search period start: 23 July 2014 00:00
Search period end: 02 August 2014 00:00
Orbit: 774 x 792 km, 98.5° (Epoch: 22 July)

Date Brightness Start Highest point End Pass type
(mag) Time Alt. Az. Time Alt. Az. Time Alt. Az.
23 Jul 12.8 01:24:50 10° NE 01:27:02 19° ENE 01:27:02 19° ENE visible
23 Jul 11.6 03:03:28 10° N 03:07:36 35° WNW 03:07:36 35° WNW visible
24 Jul 11.2 02:31:35 10° N 02:35:37 54° N 02:35:37 54° N visible
25 Jul 11.8 02:00:11 10° NNE 02:03:38 38° NE 02:03:38 38° NE visible
25 Jul 12.5 03:40:58 10° NNW 03:44:05 16° WNW 03:44:12 16° WNW visible
26 Jul 12.7 01:29:21 10° NE 01:31:38 20° ENE 01:31:38 20° ENE visible
26 Jul 11.7 03:08:17 10° N 03:12:13 32° NW 03:12:13 32° NW visible
27 Jul 11.3 02:36:19 10° N 02:40:13 50° NNW 02:40:13 50° NNW visible
28 Jul 11.8 02:04:50 10° NNE 02:08:14 39° NE 02:08:14 39° NE visible
28 Jul 12.6 03:45:58 10° NNW 03:48:45 15° WNW 03:48:48 15° WNW visible
29 Jul 12.7 01:33:54 10° NE 01:36:14 21° ENE 01:36:14 21° ENE visible
29 Jul 11.9 03:13:07 10° N 03:16:49 28° NW 03:16:49 28° NW visible
30 Jul 13.4 01:04:14 10° ENE 01:04:15 10° ENE 01:04:15 10° ENE visible
30 Jul 11.4 02:41:04 10° N 02:44:49 45° NNW 02:44:49 45° NNW visible
31 Jul 11.8 02:09:31 10° NNE 02:12:50 39° NE 02:12:50 39° NE visible
31 Jul 12.7 03:51:04 10° NW 03:53:24 13° WNW 03:53:24 13° WNW visible
01 Aug 12.7 01:38:29 10° NE 01:40:50 22° ENE 01:40:50 22° ENE visible
01 Aug 12.1 03:17:57 10° NNW 03:21:24 25° NW 03:21:24 25° NW visible
